Ten-Koh
1 43677U 18084G 22208.80904965 .00000579 00000-0 64089-4 0 9995
2 43677 97.9692 339.2387 0016808 135.0323 225.2259 14.91190442203698
PO-101
1 43678U 18084H 22209.21975159 .00001033 00000-0 10699-3 0 9998
2 43678 97.9756 342.9749 0010660 144.6457 215.5404 14.92237317203932
IRVINE 01
1 43693U 18088D 22208.71151412 .00021100 00000-0 51891-3 0 9997
2 43693 85.0285 283.4996 0009165 320.2551 39.8028 15.40455506206413
QO-100
1 43700U 18090A 22208.71243223 .00000146 00000-0 00000-0 0 9991
2 43700 0.0189 70.2644 0001712 111.2857 46.1252 1.00273782 13434
Reaktor Hello World
1 43743U 18096AA 22208.76784419 .00006982 00000-0 20865-3 0 9994
2 43743 97.3526 288.4849 0013074 273.7282 86.2467 15.34823734204148
MinXSS-2
1 43758U 18099A 22208.87576194 .00002296 00000-0 20102-3 0 9992
2 43758 97.6232 275.8186 0016648 125.7907 234.4866 14.97572449199151
AO-95
1 43770U 18099N 22208.90891863 .00001202 00000-0 11032-3 0 9991
2 43770 97.6185 274.2084 0015111 136.7150 223.5262 14.96604945199063
RANGE-B
1 43772U 18099Q 22209.15318842 .00001508 00000-0 13479-3 0 9998
2 43772 97.6313 276.2177 0015157 121.6292 238.6412 14.97290696199129
RANGE-A
1 43773U 18099R 22208.90943776 .00000943 00000-0 88652-4 0 9999
2 43773 97.6109 273.0262 0014504 124.7018 235.5572 14.96153229199041
MOVE-II
1 43780U 18099Y 22208.89924460 .00001580 00000-0 13846-3 0 9994
2 43780 97.6228 275.4223 0013621 131.5149 228.7245 14.98004879199111
SNUSat 2
1 43782U 18099AA 22208.75106944 .00001170 00000-0 10711-3 0 9993
2 43782 97.6197 274.5274 0013765 121.9653 238.2909 14.96765974199061
SnugLite
1 43784U 18099AC 22208.91646391 .00001484 00000-0 13371-3 0 9991
2 43784 97.6148 274.3241 0015880 130.3781 229.8830 14.96986717199112
ITASat 1
1 43786U 18099AE 22209.16596060 .00000672 00000-0 63683-4 0 9998
2 43786 97.6215 275.3992 0015846 128.6925 231.5717 14.96731581199149
EAGLET 1
1 43790U 18099AJ 22208.65569704 .00001088 00000-0 99640-4 0 9995
2 43790 97.6204 275.4396 0014251 133.4447 226.7963 14.96874716198802
ESEO
1 43792U 18099AL 22208.73996687 .00000928 00000-0 87019-4 0 9999
2 43792 97.6165 274.6807 0014480 129.8554 230.3944 14.96261495198859
CSIM
1 43793U 18099AM 22208.72083457 .00002222 00000-0 18943-3 0 9999
2 43793 97.6224 276.1810 0013769 126.9353 233.3133 14.98676592198911
Astrocast 0.1
1 43798U 18099AS 22209.15313572 .00001634 00000-0 14348-3 0 9997
2 43798 97.6237 276.4460 0013752 109.0077 251.2637 14.97869574199205
JO-97
1 43803U 18099AX 22208.70199638 .00001090 00000-0 98818-4 0 9990
2 43803 97.6176 274.7141 0015599 129.4508 230.8097 14.97262216199097
Suomi 100
1 43804U 18099AY 22208.72255050 .00001676 00000-0 14967-3 0 9996
2 43804 97.6169 274.6476 0016086 129.8917 230.3722 14.97153504199101
Al Farabi 2
1 43805U 18099AZ 22208.96114282 .00002574 00000-0 22355-3 0 9992
2 43805 97.6206 275.4168 0015964 126.7453 233.5236 14.97785561199161
CHOMPTT
1 43855U 18104G 22208.85352853 .00004842 00000-0 17440-3 0 9999
2 43855 85.0340 24.1985 0017363 88.8206 271.5029 15.28136466200895
ISAT
1 43879U 18111D 22208.74015454 .00001702 00000-0 14817-3 0 9991
2 43879 97.6609 113.6219 0012820 178.0362 182.0914 14.98194652195709
UWE-4
1 43880U 18111E 22209.00650641 .00001478 00000-0 12880-3 0 9994
2 43880 97.6638 114.6091 0012072 178.0379 182.0893 14.98341348193776
Sparrow
1 43881U 18111F 22208.68575646 .00002183 00000-0 18712-3 0 9993
2 43881 97.6660 114.5351 0012292 173.0882 187.0513 14.98506982195737
Lume 1
1 43908U 18111AJ 22209.10581504 .00005622 00000-0 18906-3 0 9997
2 43908 97.1866 95.6426 0016294 290.9896 68.9602 15.31074857199618
FO-99
1 43937U 19003F 22208.88502181 .00007554 00000-0 24858-3 0 9997
2 43937 97.1277 240.6786 0020175 15.0666 345.1172 15.31581761196167
MYSat 1
1 44045U 18092F 22208.78747742 .00030468 00000-0 40068-3 0 9999
2 44045 51.6288 230.9000 0006190 273.2060 86.8224 15.58190254194159
AstroCast 0.2
1 44083U 19018F 22209.12047097 .00005722 00000-0 21424-3 0 9995
2 44083 97.3197 267.2219 0009436 352.1425 7.9665 15.27638857184693
AISTechSat 3
1 44103U 19018AB 22209.09511475 .00004800 00000-0 17726-3 0 9996
2 44103 97.3061 267.5476 0011572 0.0075 0.1163 15.28159887184856
AISat 1
1 44104U 19018AC 22208.82880182 .00003817 00000-0 10677-3 0 9996
2 44104 97.3959 292.1317 0051085 350.5750 9.4530 15.35988042185792
Prox-1
1 44339U 19036A 22208.92580850 .00001762 00000-0 35074-3 0 9991
2 44339 24.0006 297.9428 0010603 304.0554 55.8931 14.55260062164349
Oculus-ASR
1 44348U 19036K 22208.86483575 .00033634 -57328-5 28741-3 0 9997
2 44348 28.5004 272.3878 0226570 47.0140 314.9217 15.40743654170777
Armadillo
1 44352U 19036P 22209.19997203 .00244375 13231-4 60036-3 0 9999
2 44352 28.5167 176.1222 0085749 200.9449 158.7638 15.88403377171701
NO-104
1 44354U 19036R 22208.46376572 .00036190 -56658-5 29232-3 0 9999
2 44354 28.5225 260.0809 0216631 63.3838 298.8784 15.43801299170861
Move-IIb
1 44398U 19038N 22209.13613260 .00009839 00000-0 46538-3 0 9994
2 44398 97.6357 178.8690 0019719 352.0068 8.0799 15.19416115169213
SONATE
1 44400U 19038Q 22209.28052578 .00003833 00000-0 20794-3 0 9997
2 44400 97.6442 177.9765 0022758 356.9652 3.1436 15.14965865169113
BeeSat 9
1 44412U 19038AC 22209.14618710 .00004850 00000-0 24490-3 0 9998
2 44412 97.6371 178.7472 0019839 359.4416 0.6791 15.17416625168868
JAISAT-1
1 44419U 19038F 22208.85550361 .00005020 00000-0 25008-3 0 9995
2 44419 97.6374 179.3229 0018766 357.9817 2.1337 15.17889410169186
LightSail-2
1 44420U 19036AC 22208.71867230 .00039888 00000-0 45948-2 0 9999
2 44420 24.0005 226.7309 0016207 70.9022 289.3230 14.84210523163065
Taurus 1
1 44530U 19059C 22209.07687668 .00001954 00000-0 54667-3 0 9993
2 44530 98.5494 307.9856 0013115 4.0434 356.0758 14.47218572151722
Duchifat 3
1 44854U 19089C 22209.23097265 .00002226 00000-0 17572-3 0 9998
2 44854 36.9664 218.5595 0007899 200.4951 257.4487 15.01311674144061
OPS-SAT
1 44878U 19092F 22209.06758769 .00005331 00000-0 24568-3 0 9995
2 44878 97.4800 32.6833 0011946 191.7259 168.3699 15.20640151144366
TO-108
1 44881U 19093C 22209.02846331 .00000451 00000-0 63737-4 0 9999
2 44881 97.8925 287.6549 0016295 56.7355 303.5383 14.81771383140780
FloripaSat 1
1 44885U 19093G 22209.02481813 .00001583 00000-0 19964-3 0 9992
2 44885 97.8966 289.0418 0015674 62.9727 297.3010 14.83275830140866
RS-44
1 44909U 19096E 22209.23636323 .00000003 00000-0 -28709-4 0 9998
2 44909 82.5201 203.1803 0216509 224.1702 134.1936 12.79714101120771
BY70-2
1 45857U 20042B 22209.05830265 .00005571 00000-0 73768-3 0 9993
2 45857 97.9539 285.5198 0009619 353.6029 6.4875 14.80271682111466
UPMSat 2
1 46276U 20061E 22208.77241694 .00001924 00000-0 96656-4 0 9990
2 46276 97.3904 278.6788 0002680 65.2560 294.8953 15.18455568104996
AmicalSat
1 46287U 20061R 22208.82593522 .00002615 00000-0 15160-3 0 9996
2 46287 97.4450 277.6051 0003925 121.4207 238.7408 15.13037789104575
SALSAT
1 46495U 20068K 22208.79784809 .00001407 00000-0 10431-3 0 9994
2 46495 97.7299 150.1170 0017355 137.3423 222.9154 15.04653501100255
BY70-3
1 46839U 20079N 22209.16842481 .00016368 00000-0 36580-3 0 9996
2 46839 97.1967 280.7657 0005894 168.5363 249.7386 15.43566907 96521
